Renton, WA
on Tuesday, November 27, 2012

Tuesday
Previous Day Next Day
Daily Summary
 ActualAverage (KSEA)Record (KSEA)
Temperature
Mean Temperature °F 43°F  
Max Temperature 50°F 48°F 58°F (2013)
Min Temperature 36°F 38°F 19°F (1985)
Degree Days
Heating Degree Days 22 22  
Month to date heating degree days 519  
Since 1 July heating degree days 1116  
Cooling Degree Days 0 0  
Month to date cooling degree days 0  
Year to date cooling degree days 189  
Moisture
Dew Point 36°F   
Average Humidity 78    
Maximum Humidity 86    
Minimum Humidity 59    
Precipitation
Precipitation 0.00 in 0.22 in 1.30 in (1996)
Month to date precipitation 5.91  
Year to date precipitation 31.48  
Snow
Snow 0.00 in in 7.60 in (1985)
Month to date snowfall  
Since 1 July snowfall  
Snow Depth in   
Wind
Wind Speed 3 mph   
Max Wind Speed 6 mph   
Max Gust Speed mph   
Visibility 10 miles   
Events     

Key: T is trace of precipitation, MM is missing value
Source: NWS Daily Summary
Time(PST)TemperatureDew PointHumidity Pressure Visibility Wind DirectionWind SpeedGust SpeedPrecipitationEvents Conditions
12:53 AM 37.9°F 34.0°F 86% 30.10 in 9.0 miles SE 4.6 mph - N/A   Scattered Clouds
1:53 AM 39.0°F 35.1°F 86% 30.10 in 10.0 miles ESE 3.5 mph - N/A   Mostly Cloudy
2:53 AM 37.0°F 33.1°F 86% 30.11 in 10.0 miles SSE 4.6 mph - N/A   Clear
3:53 AM 37.0°F 33.1°F 86% 30.09 in 10.0 miles SE 3.5 mph - N/A   Clear
4:53 AM 37.0°F 33.1°F 86% 30.09 in 10.0 miles ESE 3.5 mph - N/A   Clear
5:53 AM 36.0°F 32.0°F 86% 30.09 in 9.0 miles Calm Calm - N/A   Clear
6:53 AM 36.0°F 32.0°F 86% 30.09 in 9.0 miles Calm Calm - N/A   Clear
7:53 AM 36.0°F 32.0°F 86% 30.09 in 8.0 miles Calm Calm - N/A   Clear
8:53 AM 37.9°F 34.0°F 86% 30.09 in 8.0 miles Calm Calm - N/A   Clear
9:53 AM 41.0°F 36.0°F 82% 30.09 in 9.0 miles Calm Calm - N/A   Clear
10:53 AM 45.0°F 37.9°F 76% 30.08 in 10.0 miles NW 5.8 mph - N/A   Clear
11:53 AM 46.9°F 37.0°F 68% 30.05 in 10.0 miles WNW 4.6 mph - N/A   Clear
12:53 PM 48.9°F 39.0°F 69% 30.03 in 10.0 miles NW 5.8 mph - N/A   Clear
1:53 PM 50.0°F 37.9°F 63% 30.01 in 10.0 miles WNW 4.6 mph - N/A   Clear
2:53 PM 50.0°F 36.0°F 59% 30.00 in 10.0 miles NW 4.6 mph - N/A   Clear
3:53 PM 48.9°F 37.0°F 64% 29.99 in 10.0 miles Calm Calm - N/A   Scattered Clouds
4:53 PM 48.0°F 37.9°F 68% 29.99 in 10.0 miles Calm Calm - N/A   Overcast
5:53 PM 48.0°F 37.9°F 68% 29.98 in 10.0 miles WNW 5.8 mph - N/A   Overcast
6:53 PM 46.0°F 37.9°F 73% 29.98 in 10.0 miles Calm Calm - N/A   Scattered Clouds
7:53 PM 46.0°F 39.0°F 76% 29.96 in 10.0 miles Calm Calm - N/A   Clear
8:53 PM 45.0°F 39.0°F 80% 29.93 in 10.0 miles Calm Calm - N/A   Clear
9:53 PM 43.0°F 37.9°F 82% 29.93 in 10.0 miles WNW 3.5 mph - N/A   Clear
10:53 PM 45.0°F 39.0°F 80% 29.91 in 10.0 miles Calm Calm - N/A   Clear
11:53 PM 44.1°F 39.0°F 82% 29.91 in 10.0 miles Calm Calm - N/A   Clear
Moon Phase
Nov. 27 Nov. 28 Dec. 06 Dec. 13 Dec. 20
Sunrise:07:31 AM (PST) Moon Rise:03:57 PM (PST)11/27
Sunset:04:21 PM (PST) Moon Set:06:39 AM (PST)11/27

Copyright © 2014 The Weather Underground, Inc.